sat.trackr.live / text

‹ back to catalog

STARLINK-35811

NORAD 66596 · 2025-270J

PAYLOAD ACTIVE UNKNOWN

§ Identity

Operator
Country
US
Launch date
2025-11-22
Launch site
AFETR
Launch vehicle
Mass (kg)
RCS (m²)

Purposes: comms

External: N2YO · Heavens-Above · Gunter

§ Orbital elements

Epoch: 2026-09-20T08:31:57.471456Z

Period
94.27 min
Inclination
43.0031°
Eccentricity
0.0002541
Mean motion
15.27581411 rev/d
Perigee alt
481.3 km
Apogee alt
484.8 km
Semi-major
6,861.2 km
B*
4.4305e-4
RAAN
37.1438°
Arg perigee
263.2068°
Mean anomaly
96.8494°
Rev number
4,758

§ Raw data

STARLINK-358111 66596U 25270J   26263.35552629  .00011950  00000+0  44305-3 0  99982 66596  43.0031  37.1438 0002541 263.2068  96.8494 15.27581411 47589

JSON: /api/v1/satellites/66596 · /tle

For live sub-satellite position, see the globe view (requires WebGL).

§ Visibility from observer

Set your observer location to see the next 7 days of passes ≥ 10°. The values pass through the URL so the page stays shareable.

No JS? Fill the form by hand. The geolocation button needs JavaScript.